CZ-2C DEB (43534 NORAD) Tracking and Keplerian Element Data

This shows tracking and keplerian element data for the satellite.

Feedback or suggestion? Click here.




ElementValue
Catalog43534
NameCZ-2C DEB
Epoch Orbit127
Epoch Day198.74870077
Epoch Year2018
RAAN269.1607
Inclination98.0521
Eccentricity0.0024933
Argument of Perigee251.8099
Mean Anonmoly108.0401
Mean Motion14.876627
Decay Rate-5.9E-07
L11 43534U 18056F 18198.74870077 -.00000059 00000-0 62920-7 0 9997
L22 43534 98.0521 269.1607 0024933 251.8099 108.0401 14.87662700 1277

Live tracking and technical data element details for CZ-2C DEB (NORAD 43534). CZ-2C DEB can be tracked NOW for your location showing map with azimuth and elevation plus other details from your city location.

Track the satellite on the map from your city or location and see movement details for azimuth, elevation, latitude, longitude, range, height, and movement on the map or in text.







IsCatalogInMostPopularTable: catalog: 43534, numindb: 6
Update: records affected: 1



GetName: 43534 CZ-2C DEB

Hit Count: updated at: Fri, 20 Jul 2018 20:36:31 GMT